Home   Weather   Township of Fairfield   Past weeks
Flag for USA

Past Weather in Township of Fairfield, Ohio, USA — Yesterday and Last 2 Weeks

Now
80 °F

Scattered clouds.


Feels Like: 81 °F
Forecast: 85 / 62 °F
Wind: 10 mph from Northeast

Location: John Glenn Columbus International Airport

Current Time: Jul 13, 2020 at 9:12:47 pm

Latest Report: Jul 13, 2020 at 7:51 pm


Visibility: 10 mi

Pressure: 29.93 "Hg

Humidity: 51%

Dew Point: 60 °F

Location of Township of FairfieldLocation

Past Weather in Township of Fairfield — Graph

°F

Township of Fairfield Temperature Yesterday

Maximum temperature yesterday: 80 °F (at 3:51 pm)
Minimum temperature yesterday: 68 °F (at 4:51 am)
Average temperature yesterday: 72 °F

High & Low Weather Summary for the Past Weeks

 TemperatureHumidityPressure
High96 °F (Jul 7, 3:06 pm)100% (Jul 7, 6:19 pm)30.03 "Hg (Jul 7, 6:19 pm)
Low64 °F (Jul 13, 5:51 am)27% (Jul 3, 2:51 pm)29.72 "Hg (Jul 10, 2:51 pm)
Average80 °F64%29.91 "Hg
* Reported Jun 28 7:51 pm — Jul 13 7:51 pm, Township of Fairfield. Weather by CustomWeather, © 2020

Note: Actual official high and low records may vary slightly from our data, if they occured in-between our weather recording intervals... More about our weather records

Township of Fairfield Weather History for the Previous 24 Hours

Scroll right to see more
 ConditionsComfort  
Time TempWeatherWind HumidityBarometerVisibility
7:51 pm
Mon, Jul 13
80 °FScattered clouds.10 mph51%29.93 "Hg10 mi
6:51 pm80 °FScattered clouds.13 mph52%29.93 "Hg10 mi
5:51 pm84 °FPartly sunny.12 mph48%29.92 "Hg10 mi
4:51 pm85 °FScattered clouds.9 mph43%29.91 "Hg10 mi
3:51 pm85 °FScattered clouds.12 mph46%29.91 "Hg10 mi
2:51 pm84 °FScattered clouds.12 mph46%29.92 "Hg10 mi
1:51 pm84 °FScattered clouds.10 mph51%29.92 "Hg10 mi
12:51 pm82 °FBroken clouds.7 mph53%29.92 "Hg10 mi
11:51 am82 °FScattered clouds.6 mph55%29.92 "Hg10 mi
10:51 am79 °FScattered clouds.No wind62%29.92 "Hg10 mi
9:51 am75 °FSunny.3 mph74%29.91 "Hg10 mi
8:51 am71 °FSunny.No wind81%29.90 "Hg10 mi
7:51 am68 °FSunny.No wind87%29.89 "Hg10 mi
6:51 am64 °FPassing clouds.No wind97%29.89 "Hg8 mi
5:51 am64 °FPassing clouds.No wind97%29.88 "Hg9 mi
4:51 am65 °FClear.No wind97%29.85 "Hg10 mi
3:51 am66 °FClear.No wind93%29.85 "Hg10 mi
2:51 am66 °FClear.3 mph96%29.85 "Hg10 mi
1:51 am67 °FClear.No wind90%29.86 "Hg10 mi
12:51 am67 °FClear.3 mph93%29.87 "Hg10 mi
11:51 pm
Sun, Jul 12
69 °FClear.No wind93%29.85 "Hg10 mi
10:51 pm69 °FPassing clouds.No wind93%29.85 "Hg10 mi
9:51 pm70 °FPassing clouds.No wind81%29.83 "Hg10 mi
Weather by CustomWeather, © 2020

See weather overview